| time (UTC) | temp F | wind direction | speed MPH | gust MPH | rain 1hr in | rain 24hr in | rain mn in | humidity % | barometer mb |
| 20260505121503 | 75 | 51 | 0.0 | 4.0 | 0.00 | 0.00 | 0.00 | 40 | 1002.9 |
| 20260505121009 | 75 | 20 | 0.0 | 1.0 | 0.00 | 0.00 | 0.00 | 40 | 1002.9 |
| 20260505120505 | 76 | 20 | 0.0 | 2.0 | 0.00 | 0.00 | 0.00 | 39 | 1002.8 |
| 20260505120003 | 76 | 20 | 0.0 | 1.0 | 0.00 | 0.00 | 0.00 | 37 | 1002.7 |
| 20260505115503 | 76 | 20 | 0.0 | 2.0 | 0.00 | 0.00 | 0.00 | 38 | 1002.9 |
| 20260505115003 | 76 | 20 | 0.0 | 2.0 | 0.00 | 0.00 | 0.00 | 37 | 1002.8 |
| 20260505114504 | 76 | 21 | 0.0 | 3.0 | 0.00 | 0.00 | 0.00 | 36 | 1002.9 |
| 20260505114004 | 76 | 56 | 2.0 | 2.0 | 0.00 | 0.00 | 0.00 | 36 | 1002.8 |
| 20260505113503 | 76 | 166 | 0.0 | 5.0 | 0.00 | 0.00 | 0.00 | 35 | 1002.8 |
| 20260505113003 | 77 | 166 | 5.0 | 6.0 | 0.00 | 0.00 | 0.00 | 34 | 1002.9 |
| 20260505112503 | 77 | 174 | 1.0 | 3.0 | 0.00 | 0.00 | 0.00 | 33 | 1002.8 |
| 20260505112007 | 78 | 182 | 5.0 | 6.0 | 0.00 | 0.00 | 0.00 | 32 | 1002.7 |
| 20260505111507 | 79 | 186 | 2.0 | 2.0 | 0.00 | 0.00 | 0.00 | 32 | 1002.6 |
| 20260505111002 | 79 | 166 | 1.0 | 6.0 | 0.00 | 0.00 | 0.00 | 33 | 1002.8 |
| 20260505110506 | 78 | 222 | 2.0 | 5.0 | 0.00 | 0.00 | 0.00 | 32 | 1002.9 |
| 20260505101514 | 77 | 258 | 0.0 | 6.0 | 0.00 | 0.00 | 0.00 | 37 | 1003.6 |
| 20260505101004 | 76 | 197 | 0.0 | 2.0 | 0.00 | 0.00 | 0.00 | 36 | 1003.8 |
| 20260505100504 | 75 | 198 | 2.0 | 5.0 | 0.00 | 0.00 | 0.00 | 38 | 1003.9 |
| 20260505100003 | 76 | 198 | 0.0 | 6.0 | 0.00 | 0.00 | 0.00 | 37 | 1003.8 |
| 20260505095507 | 76 | 179 | 3.0 | 4.0 | 0.00 | 0.00 | 0.00 | 37 | 1003.9 |
| 20260505095004 | 76 | 179 | 2.0 | 5.0 | 0.00 | 0.00 | 0.00 | 37 | 1003.9 |
| 20260505094508 | 75 | 216 | 1.0 | 4.0 | 0.00 | 0.00 | 0.00 | 37 | 1004.1 |
| 20260505094003 | 74 | 248 | 0.0 | 3.0 | 0.00 | 0.00 | 0.00 | 40 | 1004.3 |
| 20260505093508 | 74 | 255 | 0.0 | 5.0 | 0.00 | 0.00 | 0.00 | 38 | 1004.4 |
| 20260505093004 | 73 | 254 | 1.0 | 4.0 | 0.00 | 0.00 | 0.00 | 39 | 1004.4 |
| 20260505092504 | 74 | 180 | 1.0 | 2.0 | 0.00 | 0.00 | 0.00 | 39 | 1004.4 |
| 20260505092004 | 74 | 180 | 3.0 | 3.0 | 0.00 | 0.00 | 0.00 | 39 | 1004.4 |
| 20260505091504 | 73 | 180 | 0.0 | 4.0 | 0.00 | 0.00 | 0.00 | 39 | 1004.5 |
| 20260505091004 | 73 | 180 | 1.0 | 2.0 | 0.00 | 0.00 | 0.00 | 41 | 1004.6 |
| 20260505090507 | 72 | 180 | 1.0 | 2.0 | 0.00 | 0.00 | 0.00 | 39 | 1004.7 |
| 20260505090005 | 72 | 180 | 0.0 | 3.0 | 0.00 | 0.00 | 0.00 | 41 | 1004.8 |
| 20260505085503 | 72 | 180 | 1.0 | 4.0 | 0.00 | 0.00 | 0.00 | 40 | 1004.8 |
| 20260505085004 | 72 | 146 | 0.0 | 5.0 | 0.00 | 0.00 | 0.00 | 39 | 1004.8 |
| 20260505084503 | 72 | 144 | 0.0 | 1.0 | 0.00 | 0.00 | 0.00 | 40 | 1004.8 |
| 20260505084004 | 72 | 144 | 2.0 | 3.0 | 0.00 | 0.00 | 0.00 | 42 | 1005.0 |
| 20260505083506 | 72 | 144 | 0.0 | 6.0 | 0.00 | 0.00 | 0.00 | 41 | 1005.0 |
| 20260505083002 | 71 | 144 | 0.0 | 4.0 | 0.00 | 0.00 | 0.00 | 43 | 1005.1 |
| 20260505082506 | 70 | 56 | 0.0 | 3.0 | 0.00 | 0.00 | 0.00 | 43 | 1005.3 |
| 20260505082002 | 72 | 56 | 0.0 | 0.0 | 0.00 | 0.00 | 0.00 | 44 | 1005.2 |
| 20260505081504 | 71 | 56 | 0.0 | 1.0 | 0.00 | 0.00 | 0.00 | 42 | 1005.4 |
| 20260505081003 | 69 | 56 | 0.0 | 5.0 | 0.00 | 0.00 | 0.00 | 43 | 1005.4 |
| 20260505080504 | 69 | 56 | 0.0 | 0.0 | 0.00 | 0.00 | 0.00 | 43 | 1005.6 |
| 20260505080002 | 69 | 56 | 0.0 | 2.0 | 0.00 | 0.00 | 0.00 | 44 | 1005.6 |
| 20260505075503 | 68 | 56 | 0.0 | 0.0 | 0.00 | 0.00 | 0.00 | 45 | 1005.7 |
| 20260505075002 | 67 | 56 | 0.0 | 1.0 | 0.00 | 0.00 | 0.00 | 47 | 1005.9 |
| 20260505074503 | 66 | 56 | 1.0 | 1.0 | 0.00 | 0.00 | 0.00 | 48 | 1006.1 |
| 20260505074002 | 65 | 56 | 0.0 | 2.0 | 0.00 | 0.00 | 0.00 | 48 | 1006.3 |
| 20260505073504 | 65 | 56 | 2.0 | 2.0 | 0.00 | 0.00 | 0.00 | 49 | 1006.3 |
| 20260505073003 | 65 | 56 | 1.0 | 2.0 | 0.00 | 0.00 | 0.00 | 49 | 1006.3 |
| 20260505072505 | 65 | 54 | 0.0 | 2.0 | 0.00 | 0.00 | 0.00 | 50 | 1006.3 |
| 20260505072002 | 64 | 54 | 0.0 | 2.0 | 0.00 | 0.00 | 0.00 | 51 | 1006.4 |
| 20260505071504 | 63 | 54 | 0.0 | 3.0 | 0.00 | 0.00 | 0.00 | 53 | 1006.6 |
| 20260505071004 | 63 | 54 | 0.0 | 3.0 | 0.00 | 0.00 | 0.00 | 50 | 1006.7 |
| 20260505070502 | 63 | 54 | 0.0 | 1.0 | 0.00 | 0.00 | 0.00 | 53 | 1006.7 |
| 20260505070004 | 62 | 54 | 0.0 | 3.0 | 0.00 | 0.00 | 0.00 | 54 | 1006.9 |
| 20260505065505 | 62 | 54 | 0.0 | 1.0 | 0.00 | 0.00 | 0.00 | 53 | 1007.0 |
| 20260505065003 | 62 | 54 | 1.0 | 2.0 | 0.00 | 0.00 | 0.00 | 56 | 1007.0 |
| 20260505064504 | 63 | 54 | 0.0 | 1.0 | 0.00 | 0.00 | 0.00 | 55 | 1007.0 |
| 20260505064005 | 62 | 54 | 0.0 | 1.0 | 0.00 | 0.00 | 0.00 | 54 | 1007.0 |
| 20260505063503 | 62 | 54 | 0.0 | 1.0 | 0.00 | 0.00 | 0.00 | 54 | 1007.1 |
| 20260505063003 | 62 | 54 | 0.0 | 2.0 | 0.00 | 0.00 | 0.00 | 54 | 1007.1 |
| 20260505062503 | 61 | 54 | 0.0 | 2.0 | 0.00 | 0.00 | 0.00 | 54 | 1007.2 |
| 20260505062002 | 62 | 54 | 0.0 | 2.0 | 0.00 | 0.00 | 0.00 | 55 | 1007.2 |
| 20260505061506 | 62 | 54 | 0.0 | 2.0 | 0.00 | 0.00 | 0.00 | 54 | 1007.3 |
| 20260505061004 | 61 | 54 | 0.0 | 0.0 | 0.00 | 0.00 | 0.00 | 56 | 1007.3 |
| 20260505060503 | 61 | 54 | 0.0 | 0.0 | 0.00 | 0.00 | 0.00 | 57 | 1007.4 |
| 20260505060004 | 61 | 54 | 0.0 | 0.0 | 0.00 | 0.00 | 0.00 | 58 | 1007.3 |
| 20260505055502 | 61 | 54 | 0.0 | 0.0 | 0.00 | 0.00 | 0.00 | 58 | 1007.5 |
| 20260505055002 | 61 | 54 | 0.0 | 0.0 | 0.00 | 0.00 | 0.00 | 57 | 1007.3 |
| 20260505054506 | 62 | 54 | 0.0 | 0.0 | 0.00 | 0.00 | 0.00 | 55 | 1007.4 |
| 20260505054004 | 60 | 54 | 0.0 | 0.0 | 0.00 | 0.00 | 0.00 | 58 | 1007.5 |
| 20260505053503 | 59 | 54 | 0.0 | 0.0 | 0.00 | 0.00 | 0.00 | 59 | 1007.7 |
| 20260505053003 | 57 | 54 | 0.0 | 0.0 | 0.00 | 0.00 | 0.00 | 62 | 1007.9 |
| 20260505052505 | 56 | 54 | 0.0 | 0.0 | 0.00 | 0.00 | 0.00 | 69 | 1008.1 |
| 20260505052002 | 54 | 54 | 0.0 | 0.0 | 0.00 | 0.00 | 0.00 | 70 | 1008.1 |
| 20260505051503 | 53 | 54 | 0.0 | 0.0 | 0.00 | 0.00 | 0.00 | 74 | 1008.3 |
| 20260505051003 | 53 | 54 | 0.0 | 0.0 | 0.00 | 0.00 | 0.00 | 75 | 1008.5 |
| 20260505050505 | 53 | 54 | 0.0 | 0.0 | 0.00 | 0.00 | 0.00 | 75 | 1008.6 |
| 20260505041503 | 49 | 54 | 0.0 | 0.0 | 0.00 | 0.00 | 0.00 | 79 | 1009.2 |
| 20260505041008 | 49 | 54 | 0.0 | 0.0 | 0.00 | 0.00 | 0.00 | 79 | 1009.1 |
| 20260505040503 | 49 | 54 | 0.0 | 0.0 | 0.00 | 0.00 | 0.00 | 78 | 1009.0 |
| 20260505040003 | 49 | 54 | 0.0 | 0.0 | 0.00 | 0.00 | 0.00 | 78 | 1009.2 |
| 20260505035510 | 49 | 54 | 0.0 | 0.0 | 0.00 | 0.00 | 0.00 | 79 | 1009.2 |
| 20260505035002 | 49 | 54 | 0.0 | 0.0 | 0.00 | 0.00 | 0.00 | 81 | 1009.1 |
| 20260505034504 | 49 | 54 | 0.0 | 0.0 | 0.00 | 0.00 | 0.00 | 79 | 1009.1 |
| 20260505034003 | 49 | 54 | 0.0 | 0.0 | 0.00 | 0.00 | 0.00 | 79 | 1009.0 |
| 20260505033504 | 50 | 54 | 0.0 | 0.0 | 0.00 | 0.00 | 0.00 | 80 | 1009.1 |
| 20260505033002 | 50 | 54 | 0.0 | 0.0 | 0.00 | 0.00 | 0.00 | 75 | 1008.9 |
| 20260505032503 | 50 | 54 | 0.0 | 0.0 | 0.00 | 0.00 | 0.00 | 75 | 1009.0 |
| 20260505032004 | 50 | 54 | 0.0 | 0.0 | 0.00 | 0.00 | 0.00 | 75 | 1009.1 |
| 20260505031503 | 51 | 54 | 0.0 | 0.0 | 0.00 | 0.00 | 0.00 | 75 | 1009.0 |
| 20260505031003 | 51 | 54 | 0.0 | 0.0 | 0.00 | 0.00 | 0.00 | 74 | 1008.8 |
| 20260505030004 | 52 | 54 | 0.0 | 0.0 | 0.00 | 0.00 | 0.00 | 72 | 1008.8 |
| 20260505025508 | 52 | 54 | 0.0 | 0.0 | 0.00 | 0.00 | 0.00 | 71 | 1008.7 |
| 20260505025004 | 53 | 54 | 0.0 | 0.0 | 0.00 | 0.00 | 0.00 | 69 | 1008.6 |
| 20260505024507 | 53 | 54 | 0.0 | 0.0 | 0.00 | 0.00 | 0.00 | 68 | 1008.7 |
| 20260505024004 | 53 | 54 | 0.0 | 1.0 | 0.00 | 0.00 | 0.00 | 69 | 1008.7 |
| 20260505023503 | 53 | 54 | 0.0 | 0.0 | 0.00 | 0.00 | 0.00 | 69 | 1008.6 |
| 20260505023006 | 54 | 54 | 0.0 | 1.0 | 0.00 | 0.00 | 0.00 | 66 | 1008.6 |
| 20260505022502 | 54 | 54 | 0.0 | 0.0 | 0.00 | 0.00 | 0.00 | 67 | 1008.7 |
| 20260505022007 | 54 | 54 | 0.0 | 2.0 | 0.00 | 0.00 | 0.00 | 63 | 1008.5 |
| 20260505021504 | 54 | 54 | 0.0 | 2.0 | 0.00 | 0.00 | 0.00 | 64 | 1008.7 |
| 20260505021009 | 54 | 60 | 0.0 | 0.0 | 0.00 | 0.00 | 0.00 | 67 | 1008.7 |
| 20260505020506 | 54 | 60 | 0.0 | 0.0 | 0.00 | 0.00 | 0.00 | 63 | 1008.7 |
| 20260505020004 | 53 | 60 | 0.0 | 0.0 | 0.00 | 0.00 | 0.00 | 67 | 1008.7 |
| 20260505015508 | 54 | 60 | 0.0 | 0.0 | 0.00 | 0.00 | 0.00 | 65 | 1008.4 |
| 20260505015003 | 55 | 60 | 0.0 | 0.0 | 0.00 | 0.00 | 0.00 | 61 | 1008.2 |
| 20260505014509 | 55 | 60 | 0.0 | 0.0 | 0.00 | 0.00 | 0.00 | 61 | 1008.3 |
| 20260505014002 | 56 | 60 | 0.0 | 0.0 | 0.00 | 0.00 | 0.00 | 59 | 1008.4 |
| 20260505013509 | 56 | 60 | 0.0 | 0.0 | 0.00 | 0.00 | 0.00 | 60 | 1008.4 |
| 20260505013004 | 56 | 60 | 0.0 | 0.0 | 0.00 | 0.00 | 0.00 | 60 | 1008.4 |
| 20260505012503 | 56 | 60 | 0.0 | 1.0 | 0.00 | 0.00 | 0.00 | 60 | 1008.4 |
| 20260505012003 | 56 | 60 | 0.0 | 2.0 | 0.00 | 0.00 | 0.00 | 59 | 1008.4 |
| 20260505011504 | 56 | 60 | 0.0 | 1.0 | 0.00 | 0.00 | 0.00 | 58 | 1008.6 |
| 20260505011003 | 57 | 60 | 0.0 | 5.0 | 0.00 | 0.00 | 0.00 | 58 | 1008.6 |
| 20260505010503 | 56 | 78 | 2.0 | 4.0 | 0.00 | 0.00 | 0.00 | 58 | 1008.6 |
| 20260505010005 | 56 | 78 | 0.0 | 3.0 | 0.00 | 0.00 | 0.00 | 59 | 1008.8 |
| 20260505005504 | 57 | 78 | 0.0 | 2.0 | 0.00 | 0.00 | 0.00 | 58 | 1008.7 |
| 20260505005005 | 57 | 78 | 0.0 | 1.0 | 0.00 | 0.00 | 0.00 | 59 | 1008.7 |
| 20260505004504 | 57 | 78 | 0.0 | 2.0 | 0.00 | 0.00 | 0.00 | 58 | 1008.7 |
| 20260505004007 | 57 | 78 | 1.0 | 2.0 | 0.00 | 0.00 | 0.00 | 57 | 1008.8 |
| 20260505003503 | 57 | 78 | 0.0 | 1.0 | 0.00 | 0.00 | 0.00 | 58 | 1009.0 |
| 20260505003007 | 57 | 81 | 0.0 | 0.0 | 0.00 | 0.00 | 0.00 | 59 | 1009.0 |
| 20260505002504 | 56 | 81 | 0.0 | 0.0 | 0.00 | 0.00 | 0.00 | 60 | 1009.1 |
| 20260505002006 | 56 | 78 | 0.0 | 0.0 | 0.00 | 0.00 | 0.00 | 61 | 1009.2 |
| 20260505001503 | 56 | 78 | 0.0 | 0.0 | 0.00 | 0.00 | 0.00 | 64 | 1009.3 |
| 20260505001003 | 57 | 78 | 0.0 | 0.0 | 0.00 | 0.00 | 0.00 | 63 | 1009.3 |
| 20260505000511 | 58 | 81 | 0.0 | 0.0 | 0.00 | 0.00 | 0.00 | 58 | 1009.2 |
| 20260505000003 | 57 | 78 | 0.0 | 0.0 | 0.00 | 0.00 | 0.00 | 58 | 1009.4 |
| 20260504235510 | 57 | 78 | 0.0 | 0.0 | 0.00 | 0.00 | 0.00 | 57 | 1009.4 |
| 20260504235004 | 57 | 78 | 0.0 | 0.0 | 0.00 | 0.00 | 0.00 | 58 | 1009.5 |
| 20260504234504 | 57 | 78 | 0.0 | 0.0 | 0.00 | 0.00 | 0.00 | 60 | 1009.5 |
| 20260504234009 | 57 | 78 | 0.0 | 0.0 | 0.00 | 0.00 | 0.00 | 59 | 1009.6 |
| 20260504233503 | 58 | 78 | 0.0 | 0.0 | 0.00 | 0.00 | 0.00 | 58 | 1009.6 |
| 20260504233003 | 58 | 78 | 0.0 | 0.0 | 0.00 | 0.00 | 0.00 | 59 | 1009.6 |
| 20260504232508 | 58 | 81 | 0.0 | 0.0 | 0.00 | 0.00 | 0.00 | 57 | 1009.7 |
| 20260504232004 | 58 | 81 | 0.0 | 0.0 | 0.00 | 0.00 | 0.00 | 60 | 1009.7 |
| 20260504231508 | 59 | 81 | 0.0 | 0.0 | 0.00 | 0.00 | 0.00 | 60 | 1009.6 |
| 20260504231002 | 59 | 81 | 0.0 | 0.0 | 0.00 | 0.00 | 0.00 | 59 | 1009.6 |
| 20260504230504 | 60 | 81 | 0.0 | 2.0 | 0.00 | 0.00 | 0.00 | 57 | 1009.5 |
| 20260504230003 | 60 | 80 | 2.0 | 2.0 | 0.00 | 0.00 | 0.00 | 56 | 1009.6 |
| 20260504225502 | 60 | 78 | 2.0 | 2.0 | 0.00 | 0.00 | 0.00 | 56 | 1009.7 |
| 20260504225004 | 60 | 80 | 0.0 | 1.0 | 0.00 | 0.00 | 0.00 | 58 | 1009.8 |
| 20260504224502 | 59 | 80 | 1.0 | 1.0 | 0.00 | 0.00 | 0.00 | 61 | 1010.0 |
| 20260504224002 | 59 | 81 | 1.0 | 1.0 | 0.00 | 0.00 | 0.00 | 60 | 1009.9 |
| 20260504223502 | 59 | 81 | 0.0 | 0.0 | 0.00 | 0.00 | 0.00 | 61 | 1010.0 |
| 20260504223006 | 59 | 81 | 0.0 | 0.0 | 0.00 | 0.00 | 0.00 | 63 | 1010.1 |
| 20260504222508 | 60 | 81 | 0.0 | 0.0 | 0.00 | 0.00 | 0.00 | 60 | 1009.9 |
| 20260504222004 | 60 | 81 | 0.0 | 2.0 | 0.00 | 0.00 | 0.00 | 56 | 1009.7 |
| 20260504221511 | 60 | 98 | 0.0 | 0.0 | 0.00 | 0.00 | 0.00 | 57 | 1009.7 |
| 20260504221006 | 60 | 98 | 0.0 | 0.0 | 0.00 | 0.00 | 0.00 | 59 | 1009.9 |
| 20260504220504 | 61 | 98 | 0.0 | 0.0 | 0.00 | 0.00 | 0.00 | 54 | 1010.0 |
| 20260504220011 | 61 | 98 | 0.0 | 0.0 | 0.00 | 0.00 | 0.00 | 57 | 1010.1 |
| 20260504215507 | 62 | 98 | 0.0 | 0.0 | 0.00 | 0.00 | 0.00 | 54 | 1009.9 |
| 20260504215003 | 62 | 98 | 0.0 | 0.0 | 0.00 | 0.00 | 0.00 | 51 | 1009.8 |
| 20260504214509 | 63 | 98 | 0.0 | 0.0 | 0.00 | 0.00 | 0.00 | 49 | 1009.5 |
| 20260504214002 | 64 | 98 | 0.0 | 1.0 | 0.00 | 0.00 | 0.00 | 45 | 1009.5 |
| 20260504213503 | 64 | 98 | 0.0 | 0.0 | 0.00 | 0.00 | 0.00 | 46 | 1009.5 |
| 20260504213008 | 64 | 98 | 0.0 | 0.0 | 0.00 | 0.00 | 0.00 | 46 | 1009.5 |
| 20260504212505 | 64 | 98 | 0.0 | 1.0 | 0.00 | 0.00 | 0.00 | 46 | 1009.5 |
| 20260504212003 | 64 | 98 | 0.0 | 0.0 | 0.00 | 0.00 | 0.00 | 46 | 1009.5 |
| 20260504211509 | 65 | 98 | 0.0 | 1.0 | 0.00 | 0.00 | 0.00 | 45 | 1009.5 |
| 20260504211002 | 65 | 98 | 0.0 | 2.0 | 0.00 | 0.00 | 0.00 | 42 | 1009.5 |
| 20260504210506 | 65 | 168 | 1.0 | 9.0 | 0.00 | 0.00 | 0.00 | 42 | 1009.4 |
| 20260504210008 | 65 | 90 | 0.0 | 1.0 | 0.00 | 0.00 | 0.00 | 44 | 1009.5 |
| 20260504205503 | 65 | 90 | 0.0 | 3.0 | 0.00 | 0.00 | 0.00 | 43 | 1009.5 |
| 20260504205010 | 64 | 75 | 1.0 | 1.0 | 0.00 | 0.00 | 0.00 | 44 | 1009.6 |
| 20260504204505 | 64 | 75 | 1.0 | 1.0 | 0.00 | 0.00 | 0.00 | 45 | 1009.5 |
| 20260504204004 | 64 | 75 | 0.0 | 0.0 | 0.00 | 0.00 | 0.00 | 45 | 1009.6 |
| 20260504203509 | 64 | 75 | 0.0 | 0.0 | 0.00 | 0.00 | 0.00 | 47 | 1009.5 |
| 20260504203003 | 64 | 75 | 0.0 | 2.0 | 0.00 | 0.00 | 0.00 | 46 | 1009.4 |
| 20260504202506 | 64 | 75 | 0.0 | 0.0 | 0.00 | 0.00 | 0.00 | 48 | 1009.3 |
| 20260504202003 | 65 | 75 | 0.0 | 0.0 | 0.00 | 0.00 | 0.00 | 45 | 1009.3 |
| 20260504201510 | 65 | 75 | 0.0 | 1.0 | 0.00 | 0.00 | 0.00 | 44 | 1009.3 |
| 20260504201002 | 65 | 75 | 0.0 | 0.0 | 0.00 | 0.00 | 0.00 | 44 | 1009.3 |
| 20260504200506 | 65 | 75 | 0.0 | 1.0 | 0.00 | 0.00 | 0.00 | 45 | 1009.3 |
| 20260504200003 | 65 | 75 | 1.0 | 2.0 | 0.00 | 0.00 | 0.00 | 45 | 1009.4 |
| 20260504195508 | 65 | 76 | 0.0 | 2.0 | 0.00 | 0.00 | 0.00 | 46 | 1009.4 |
| 20260504195003 | 65 | 76 | 1.0 | 1.0 | 0.00 | 0.00 | 0.00 | 48 | 1009.4 |
| 20260504194510 | 65 | 76 | 1.0 | 1.0 | 0.00 | 0.00 | 0.00 | 48 | 1009.3 |
| 20260504194002 | 65 | 76 | 1.0 | 3.0 | 0.00 | 0.00 | 0.00 | 47 | 1009.4 |
| 20260504193509 | 66 | 78 | 1.0 | 1.0 | 0.00 | 0.00 | 0.00 | 46 | 1009.3 |
| 20260504193003 | 66 | 78 | 2.0 | 2.0 | 0.00 | 0.00 | 0.00 | 45 | 1009.2 |
| 20260504192505 | 67 | 78 | 0.0 | 1.0 | 0.00 | 0.00 | 0.00 | 45 | 1009.2 |
| 20260504192010 | 67 | 78 | 0.0 | 1.0 | 0.00 | 0.00 | 0.00 | 45 | 1009.0 |
| 20260504191502 | 67 | 78 | 3.0 | 4.0 | 0.00 | 0.00 | 0.00 | 45 | 1008.9 |
| 20260504191003 | 67 | 86 | 0.0 | 2.0 | 0.00 | 0.00 | 0.00 | 44 | 1008.9 |
| 20260504190504 | 68 | 110 | 1.0 | 1.0 | 0.00 | 0.00 | 0.00 | 43 | 1009.0 |
| 20260504190010 | 68 | 110 | 0.0 | 1.0 | 0.00 | 0.00 | 0.00 | 43 | 1009.1 |
| 20260504185504 | 68 | 110 | 0.0 | 3.0 | 0.00 | 0.00 | 0.00 | 43 | 1009.1 |
| 20260504184503 | 69 | 110 | 0.0 | 0.0 | 0.00 | 0.00 | 0.00 | 44 | 1008.9 |
| 20260504184004 | 69 | 110 | 1.0 | 2.0 | 0.00 | 0.00 | 0.00 | 44 | 1008.6 |
| 20260504183505 | 69 | 110 | 0.0 | 1.0 | 0.00 | 0.00 | 0.00 | 44 | 1008.6 |
| 20260504183003 | 70 | 110 | 0.0 | 1.0 | 0.00 | 0.00 | 0.00 | 44 | 1008.6 |
| 20260504182504 | 70 | 110 | 0.0 | 5.0 | 0.00 | 0.00 | 0.00 | 44 | 1008.5 |
| 20260504182003 | 71 | 110 | 1.0 | 3.0 | 0.00 | 0.00 | 0.00 | 44 | 1008.5 |
| 20260504181502 | 71 | 110 | 0.0 | 4.0 | 0.00 | 0.00 | 0.00 | 44 | 1008.5 |
| 20260504181003 | 71 | 110 | 0.0 | 10.0 | 0.00 | 0.00 | 0.00 | 44 | 1008.4 |
| 20260504180503 | 71 | 72 | 1.0 | 4.0 | 0.00 | 0.00 | 0.00 | 45 | 1008.2 |
| 20260504180003 | 71 | 72 | 1.0 | 3.0 | 0.00 | 0.00 | 0.00 | 45 | 1008.3 |
| 20260504175508 | 72 | 62 | 0.0 | 1.0 | 0.00 | 0.00 | 0.00 | 47 | 1008.2 |
| 20260504175003 | 72 | 62 | 0.0 | 2.0 | 0.00 | 0.00 | 0.00 | 46 | 1008.1 |
| 20260504174508 | 72 | 62 | 1.0 | 4.0 | 0.00 | 0.00 | 0.00 | 45 | 1008.1 |
| 20260504174002 | 72 | 49 | 2.0 | 2.0 | 0.00 | 0.00 | 0.00 | 45 | 1008.1 |
| 20260504173504 | 73 | 10 | 2.0 | 2.0 | 0.00 | 0.00 | 0.00 | 44 | 1008.0 |
| 20260504173006 | 73 | 10 | 0.0 | 1.0 | 0.00 | 0.00 | 0.00 | 45 | 1008.0 |
| 20260504172508 | 73 | 10 | 0.0 | 1.0 | 0.00 | 0.00 | 0.00 | 44 | 1008.1 |
| 20260504172004 | 73 | 10 | 0.0 | 1.0 | 0.00 | 0.00 | 0.00 | 43 | 1008.3 |
| 20260504171504 | 73 | 10 | 1.0 | 3.0 | 0.00 | 0.00 | 0.00 | 44 | 1008.2 |
| 20260504171004 | 73 | 10 | 0.0 | 2.0 | 0.00 | 0.00 | 0.00 | 44 | 1008.3 |
| 20260504170504 | 72 | 10 | 0.0 | 5.0 | 0.00 | 0.00 | 0.00 | 44 | 1008.3 |
| 20260504151004 | 75 | 36 | 0.0 | 6.0 | 0.00 | 0.00 | 0.00 | 40 | 1008.7 |
| 20260504150505 | 75 | 34 | 3.0 | 7.0 | 0.00 | 0.00 | 0.00 | 40 | 1008.6 |
| 20260504141004 | 78 | 12 | 0.0 | 2.0 | 0.00 | 0.00 | 0.00 | 31 | 1008.6 |
| 20260504140506 | 78 | 12 | 2.0 | 9.0 | 0.00 | 0.00 | 0.00 | 33 | 1008.7 |
| 20260504130506 | 78 | 12 | 0.0 | 2.0 | 0.00 | 0.00 | 0.00 | 31 | 1009.3 |